Waarnemingen

Advertentie
Mijn weer
Åsele, Zweden (2254): temperatuur & dauwpunt: 21.04.2018 08:00:00 - 27.04.2018 08:00:00 (CEST)Åsele, Zweden (2254): windsnelheid & windstoten: 21.04.2018 08:00:00 - 27.04.2018 08:00:00 (CEST)Åsele, Zweden (2254): windrichting: 21.04.2018 08:00:00 - 27.04.2018 08:00:00 (CEST)Åsele, Zweden (2254): luchtdruk: 21.04.2018 08:00:00 - 27.04.2018 08:00:00 (CEST)Åsele, Zweden (2254): zicht: 21.04.2018 08:00:00 - 27.04.2018 08:00:00 (CEST)Åsele, Zweden (2254): neerslag: 21.04.2018 08:00:00 - 27.04.2018 08:00:00 (CEST)
Datum & Tijd tt [°C] td [°C] ff [km/u] ff [kn] fx [km/u] fx [kn] dd ppp [hPa] vv [km] rr [mm]
27.04.2018 08:00:00 0,1 -2,4 0 0 2 1 N 1003,7 45 0,0
27.04.2018 07:00:00 -1,2 -2,9 0 0 1 1 N 1003,3 50 0,0
27.04.2018 06:00:00 -2,3 -3,4 0 0 2 1 N 1003,1 50 0,0
27.04.2018 05:00:00 -4,3 -4,8 0 0 2 1 N 1003,1 50 0,0
27.04.2018 04:00:00 -4,4 -4,9 0 0 3 2 N 1002,9 50 0,0
27.04.2018 03:00:00 -4,3 -5,1 0 0 3 1 N 1002,7 50 0,0
27.04.2018 02:00:00 -4,0 -4,8 0 0 6 3 N 1002,4 50 0,0
27.04.2018 01:00:00 -3,7 -4,7 4 2 5 3 NNW 1002,1 50 0,0
27.04.2018 00:00:00 -2,3 -4,2 3 1 8 4 NO 1001,7 50 0,0
26.04.2018 23:00:00 -2,0 -3,9 4 2 6 3 NNW 1001,4 50 0,0
26.04.2018 22:00:00 0,0 -3,0 3 2 8 4 NNO 1001,0 50 0,0
26.04.2018 21:00:00 3,2 -2,7 3 2 10 6 WNW 1000,1 50 0,0
26.04.2018 20:00:00 7,6 -2,4 4 2 17 9 W 998,9 50 0,0
26.04.2018 19:00:00 7,9 -2,7 9 5 19 10 W 998,2 49 0,0
26.04.2018 18:00:00 7,8 -2,0 7 4 19 10 NW 998,1 50 0,0
26.04.2018 17:00:00 7,3 -1,7 9 5 24 13 WNW 998,0 50 0,0
26.04.2018 16:00:00 7,7 -1,8 10 5 20 11 WNW 997,5 50 0,0
26.04.2018 15:00:00 7,9 -1,4 9 5 21 11 NNW 997,0 45 0,0
26.04.2018 14:00:00 7,9 -1,4 10 5 22 12 WNW 996,5 46 0,0
26.04.2018 13:00:00 8,5 -1,3 9 5 21 11 WNW 996,0 37 0,0
26.04.2018 12:00:00 7,3 -1,4 7 4 21 11 NW 995,8 47 0,0
26.04.2018 11:00:00 6,4 -1,0 11 6 17 9 WZW 995,5 50 0,0
26.04.2018 10:00:00 5,2 -1,5 9 5 20 11 WNW 995,6 45 0,0
26.04.2018 09:00:00 4,4 -1,6 10 6 25 14 W 995,2 50 0,0
26.04.2018 08:00:00 1,4 -2,0 9 5 18 10 W 995,5 48 0,0
26.04.2018 07:00:00 -0,3 -2,5 4 2 16 9 W 995,3 50 0,0
26.04.2018 06:00:00 -0,9 -2,5 5 3 18 10 W 995,0 50 0,0
26.04.2018 05:00:00 -0,9 -2,5 5 3 14 7 W 995,0 50 0,0
26.04.2018 04:00:00 -1,2 -2,5 3 2 10 6 WZW 994,9 50 0,0
26.04.2018 03:00:00 0,0 -2,1 5 3 15 8 W 994,8 50 0,0
26.04.2018 02:00:00 0,3 -1,8 7 4 16 9 W 994,8 50 0,0
26.04.2018 01:00:00 1,1 -1,6 9 5 20 11 W 994,6 50 0,0
26.04.2018 00:00:00 1,5 -1,2 5 3 14 8 ZW 994,7 50 0,0
25.04.2018 23:00:00 1,7 -1,0 4 2 23 12 W 994,7 50 0,0
25.04.2018 22:00:00 2,3 -1,0 8 4 16 9 W 994,4 50 0,0
25.04.2018 21:00:00 2,4 -0,7 6 4 25 14 W 994,3 50 0,0
25.04.2018 20:00:00 3,5 -0,7 12 6 34 18 W 993,9 50 0,0
25.04.2018 19:00:00 4,3 -0,9 14 7 38 21 WNW 993,4 50 0,0
25.04.2018 18:00:00 6,2 -1,2 17 9 29 16 W 992,9 50 0,0
25.04.2018 17:00:00 6,3 -0,2 10 6 27 15 W 992,4 50 0,0
25.04.2018 16:00:00 5,9 0,0 13 7 24 13 WZW 992,4 49 0,0
25.04.2018 15:00:00 5,7 0,1 11 6 23 13 WZW 992,4 48 0,0
25.04.2018 14:00:00 5,9 0,2 12 7 25 14 W 992,3 49 0,0
25.04.2018 13:00:00 4,7 -0,3 13 7 29 16 WZW 992,3 46 0,0
25.04.2018 12:00:00 5,8 -0,9 16 9 28 15 W 991,6 50 0,0
25.04.2018 11:00:00 6,1 -0,6 13 7 29 16 W 991,4 50 0,0
25.04.2018 10:00:00 5,7 -0,4 13 7 24 13 W 991,4 48 0,0
25.04.2018 09:00:00 4,4 0,2 10 5 21 11 WZW 991,3 50 0,0
25.04.2018 08:00:00 3,8 0,5 7 4 14 8 WZW 991,1 50 0,0
25.04.2018 07:00:00 1,8 1,1 5 3 9 5 ZW 991,2 50 0,0
25.04.2018 06:00:00 0,9 0,6 3 2 12 6 W 991,1 50 0,0
25.04.2018 05:00:00 -0,3 -0,6 0 0 6 3 N 991,2 50 0,0
25.04.2018 04:00:00 0,1 -0,3 0 0 11 6 N 991,3 50 0,0
25.04.2018 03:00:00 1,2 0,5 5 3 12 7 Z 991,1 50 0,0
25.04.2018 02:00:00 0,9 0,3 4 2 10 6 ZZO 991,2 50 0,0
25.04.2018 01:00:00 -0,6 -1,2 2 1 10 5 ONO 991,5 50 0,0
25.04.2018 00:00:00 -0,5 -0,8 3 1 6 3 O 991,8 46 0,0
24.04.2018 23:00:00 -0,1 -0,5 5 3 7 4 OZO 992,0 50 0,0
24.04.2018 22:00:00 0,2 -0,5 2 1 6 3 OZO 992,2 50 0,0
24.04.2018 21:00:00 1,5 0,5 3 2 6 3 ZZO 992,3 50 0,0
24.04.2018 20:00:00 4,2 0,7 3 2 10 5 ZZW 992,1 50 0,0
24.04.2018 19:00:00 5,7 1,2 5 3 10 6 ZZW 991,9 50 0,0
24.04.2018 18:00:00 5,6 1,1 5 3 21 11 W 992,0 50 0,0
24.04.2018 17:00:00 5,6 1,0 9 5 22 12 WZW 992,0 50 0,0
24.04.2018 16:00:00 4,2 0,5 10 5 16 9 WZW 992,5 50 0,0
24.04.2018 15:00:00 3,6 0,8 9 5 22 12 WZW 992,8 25 0,0
24.04.2018 14:00:00 4,3 0,3 8 4 18 10 W 992,5 50 0,0
24.04.2018 13:00:00 2,9 0,8 9 5 19 10 WNW 992,4 20 0,0
24.04.2018 12:00:00 3,2 0,9 8 4 17 9 WNW 992,2 24 0,0
24.04.2018 11:00:00 3,2 1,2 4 2 6 3 ZZW 992,1 32 0,1
24.04.2018 10:00:00 2,5 1,0 0 0 4 2 N 992,2 4,8 0,3
24.04.2018 09:00:00 1,4 0,7 0 0 3 2 N 992,4 1,8 0,9
24.04.2018 08:00:00 0,6 0,3 0 0 3 2 N 992,7 2,1 0,9
24.04.2018 07:00:00 0,5 0,1 0 0 9 5 N 993,0 2,3 0,4
24.04.2018 06:00:00 0,5 -0,1 5 3 11 6 O 993,5 5 0,2
24.04.2018 05:00:00 0,8 0,2 6 4 16 9 O 994,3 15 0,1
24.04.2018 04:00:00 0,7 0,3 8 4 16 8 O 995,2 8 0,1
24.04.2018 03:00:00 0,9 0,5 8 4 16 9 O 996,1 3,3 0,2
24.04.2018 02:00:00 1,1 0,5 8 5 15 8 O 997,2 35 0,1
24.04.2018 01:00:00 1,1 0,5 6 3 16 9 O 998,5 18 0,3
24.04.2018 00:00:00 1,5 0,6 9 5 21 12 OZO 999,3 12 0,2
23.04.2018 23:00:00 1,9 0,3 10 5 22 12 ZO 1000,0 50 0,0
23.04.2018 22:00:00 2,1 -0,2 9 5 21 12 ZO 1000,7 50 0,0
23.04.2018 21:00:00 2,6 -0,3 9 5 23 12 ZO 1001,3 50 0,0
23.04.2018 20:00:00 3,3 0,0 7 4 23 13 ZO 1001,7 50 0,0
23.04.2018 19:00:00 4,0 0,2 11 6 24 13 ZO 1002,0 50 0,0
23.04.2018 18:00:00 4,0 0,3 7 4 20 11 ZO 1002,6 50 0,0
23.04.2018 17:00:00 3,6 0,1 8 5 23 12 ZO 1003,4 50 0,0
23.04.2018 16:00:00 3,9 0,9 8 5 24 13 ZZO 1004,0 49 0,0
23.04.2018 15:00:00 3,7 2,1 8 4 17 9 ZO 1004,9 18 0,1
23.04.2018 14:00:00 3,3 2,1 6 3 19 11 ZZO 1005,6 22 0,6
23.04.2018 13:00:00 2,8 1,9 5 3 22 12 ZZO 1006,6 15 0,7
23.04.2018 12:00:00 2,7 1,4 11 6 26 14 ZO 1007,2 9 0,6
23.04.2018 11:00:00 4,6 0,6 6 3 23 12 ZZO 1007,4 36 0,0
23.04.2018 10:00:00 5,2 -0,2 8 4 23 12 ZZO 1007,4 50 0,0
23.04.2018 09:00:00 4,7 -0,1 7 4 22 12 ZZO 1008,0 50 0,0
23.04.2018 08:00:00 4,4 0,2 8 5 19 10 ZZO 1008,6 50 0,0
23.04.2018 07:00:00 3,4 -0,1 8 4 16 9 ZZO 1009,3 50 0,0
23.04.2018 06:00:00 2,2 -0,1 5 3 12 7 ZO 1010,1 50 0,0
23.04.2018 05:00:00 2,4 0,0 4 2 11 6 ZO 1010,6 50 0,0
23.04.2018 04:00:00 2,3 0,0 5 3 10 6 ZO 1011,3 50 0,0
23.04.2018 03:00:00 2,5 0,1 5 3 11 6 ZO 1011,9 50 0,0
23.04.2018 02:00:00 2,4 0,3 5 3 9 5 ZO 1012,3 50 0,0
23.04.2018 01:00:00 2,6 0,2 4 2 7 4 OZO 1013,0 50 0,0
23.04.2018 00:00:00 1,9 -0,2 3 2 6 3 OZO 1013,4 50 0,0
22.04.2018 23:00:00 2,8 -0,1 3 2 7 4 OZO 1013,4 50 0,0
22.04.2018 22:00:00 4,4 0,0 4 2 10 5 ZO 1013,3 50 0,0
22.04.2018 21:00:00 3,0 -0,3 3 1 5 3 ZO 1013,5 50 0,0
22.04.2018 20:00:00 4,8 0,0 0 0 5 3 N 1013,1 50 0,0
22.04.2018 19:00:00 6,2 -0,1 3 1 9 5 ZZW 1013,0 50 0,0
22.04.2018 18:00:00 7,4 -0,1 5 3 10 6 ZZW 1012,9 50 0,0
22.04.2018 17:00:00 9,1 -0,2 3 2 9 5 Z 1012,9 50 0,0
22.04.2018 16:00:00 7,3 -0,2 5 3 10 5 ZZW 1013,4 50 0,0
22.04.2018 15:00:00 10,0 0,1 4 2 9 5 ZW 1013,3 43 0,0
22.04.2018 14:00:00 9,6 0,0 5 3 13 7 ZW 1013,3 42 0,0
22.04.2018 13:00:00 8,5 0,5 4 2 11 6 WNW 1013,4 42 0,0
22.04.2018 12:00:00 7,3 0,9 6 4 16 9 W 1013,4 45 0,0
22.04.2018 11:00:00 6,7 1,2 6 3 14 8 W 1013,4 47 0,0
22.04.2018 10:00:00 6,0 1,3 5 3 11 6 W 1013,3 50 0,0
22.04.2018 09:00:00 4,8 1,5 6 4 13 7 WNW 1013,2 50 0,0
22.04.2018 08:00:00 3,6 1,3 4 2 8 4 NW 1012,9 50 0,0
22.04.2018 07:00:00 2,2 1,3 0 0 6 3 N 1012,2 50 0,0
22.04.2018 06:00:00 0,9 0,5 4 2 8 5 W 1011,5 50 0,0
22.04.2018 05:00:00 0,5 0,2 5 3 9 5 W 1011,1 50 0,0
22.04.2018 04:00:00 1,3 0,4 5 3 9 5 WNW 1010,3 50 0,0
22.04.2018 03:00:00 1,9 0,9 0 0 13 7 N 1009,6 50 0,0
22.04.2018 02:00:00 2,6 1,0 7 4 22 12 WNW 1008,7 50 0,0
22.04.2018 01:00:00 2,8 1,2 11 6 22 12 W 1007,9 50 0,0
22.04.2018 00:00:00 2,7 1,4 10 5 24 13 W 1007,0 50 0,0
21.04.2018 23:00:00 2,7 1,4 10 5 21 12 W 1006,4 50 0,1
21.04.2018 22:00:00 2,9 1,6 9 5 26 14 W 1005,9 44 0,1
21.04.2018 21:00:00 2,7 1,7 11 6 32 17 W 1005,3 36 1,1
21.04.2018 20:00:00 3,6 1,5 15 8 37 20 W 1004,7 12 0,1
21.04.2018 19:00:00 5,0 0,2 15 8 34 18 W 1004,0 50 0,0
21.04.2018 18:00:00 5,8 -0,1 17 9 35 19 W 1003,6 50 0,0
21.04.2018 17:00:00 6,0 -0,1 10 6 37 20 W 1003,1 41 0,0
21.04.2018 16:00:00 6,9 -0,6 17 9 37 20 W 1002,6 49 0,0
21.04.2018 15:00:00 7,3 -0,2 15 8 39 21 W 1002,5 39 0,0
21.04.2018 14:00:00 7,3 -0,2 18 10 36 19 W 1002,1 47 0,0
21.04.2018 13:00:00 6,0 -0,1 8 4 35 19 W 1002,1 50 0,0
21.04.2018 12:00:00 5,4 0,4 9 5 30 16 W 1001,9 36 0,2
21.04.2018 11:00:00 5,1 0,7 10 5 32 17 W 1001,6 30 0,1
21.04.2018 10:00:00 5,0 0,8 16 8 33 18 W 1000,9 35 0,0
21.04.2018 09:00:00 4,6 0,7 13 7 29 16 W 1000,5 50 0,0
21.04.2018 08:00:00 3,8 1,0 12 6 26 14 WZW 1000,5 50 0,0

tt = temperatuur
td = dauwpunt
ff = windsnelheid
fx = windstoten
dd = windrichting
ppp = luchtdruk
vv = zicht
rr = neerslag

Weerstations in de omgeving